Location: Newark
(39.6867°N, 100.6772°W)
Time: 04:33:22
(UTC+00:00)

Explorer 11/Cluster Stage 4 - Pass Details

Date: 30 October 2019
Orbit: 467 x 1259 km, 28.8° (Epoch: 17 November)

Event Time Altitude Azimuth Distance (km) Brightness Sun altitude
Rises 11:50:44 0° 237° (WSW) 3,502 - -15.5°
Exits shadow 11:53:31 - 226° (SW) 2,576 8.8 -15.0°
Reaches altitude 10° 11:54:06 10° 223° (SW) 2,397 8.7 -14.9°
Maximum altitude 11:58:15 21° 176° (S) 1,565 8.2 -14.1°
Drops below altitude 10° 12:01:49 10° 126° (SE) 2,018 9.7 -13.4°
Sets 12:04:23 0° 110° (ESE) 2,805 11.2 -12.9°
